Notices

What's New in latest Release from April 7th, 2021:

- Updated Glossary, including Speed of Maximum Gust, and Total Hourly Precipitation

- Updated national and regional climate services offices contacts and prices information

- Addition of station inventory lists for 1981-2010, 1971-2000, and 1961-1990 Normals.

If you haven't already, please take our survey and provide feedback about our website: https://eccc.sondage-survey.ca/f/LanguageSelection.aspx?s=442ca660-fcf1-47c0-95a9-59707d6fd709

Hourly Data Report for September 19, 2017

TORONTO CITY
ONTARIO

43°40'00.000" N
79°24'00.000" W
112.50 m
6158355
71508
XTO

Download Data

Hourly Data (September 2017)
Hourly Data Report for September 19, 2017
TIME
LST
Temp Definition
°C
Dew Point Definition
°C
Rel Hum Definition
%
Precip. Amount Definition
mm

Wind Dir Definition
10's deg

Wind Spd Definition
km/h
Visibility Definition
km
Stn Press Definition
kPa
Hmdx Definition


Wind Chill Definition


Weather Definition


00:00 21.2 16.8 76 0.0 LegendMM LegendMM   100.35 26   LegendNANA
01:00 21.3 17.2 77 0.0 LegendMM LegendMM   100.31 27   LegendNANA
02:00 20.9 17.3 80 0.0 LegendMM LegendMM   100.28 26   LegendNANA
03:00 20.7 17.4 82 0.0 LegendMM LegendMM   100.28 26   LegendNANA
04:00 20.4 17.3 82 0.0 LegendMM LegendMM   100.29 26   LegendNANA
05:00 20.5 17.6 83 0.0 LegendMM LegendMM   100.29 26   LegendNANA
06:00 20.3 17.6 85 0.0 LegendMM LegendMM   100.31 26   LegendNANA
07:00 20.7 17.7 83 0.0 LegendMM LegendMM   100.33 26   LegendNANA
08:00 21.8 18.1 80 0.0 LegendMM LegendMM   100.36 28   LegendNANA
09:00 22.4 18.3 78 0.0 LegendMM LegendMM   100.38 29   LegendNANA
10:00 23.7 17.7 69 0.0 LegendMM LegendMM   100.36 29   LegendNANA
11:00 24.4 18.2 68 0.0 LegendMM LegendMM   100.38 31   LegendNANA
12:00 24.1 17.8 68 0.0 LegendMM LegendMM   100.34 30   LegendNANA
13:00 24.4 17.8 67 0.0 LegendMM LegendMM   100.28 30   LegendNANA
14:00 25.5 17.5 61 0.0 LegendMM LegendMM   100.23 31   LegendNANA
15:00 24.8 17.1 62 0.0 LegendMM LegendMM   100.17 30   LegendNANA
16:00 24.7 17.5 65 0.0 LegendMM LegendMM   100.15 30   LegendNANA
17:00 23.5 17.8 70 0.0 LegendMM LegendMM   100.19 29   LegendNANA
18:00 23.2 18.3 74 0.0 LegendMM LegendMM   100.19 29   LegendNANA
19:00 23.0 18.2 75 0.0 LegendMM LegendMM   100.22 29   LegendNANA
20:00 22.3 17.9 76 0.0 LegendMM LegendMM   100.27 28   LegendNANA
21:00 21.6 17.6 78 0.0 LegendMM LegendMM   100.24 27   LegendNANA
22:00 21.1 17.5 80 0.0 LegendMM LegendMM   100.24 27   LegendNANA
23:00 21.3 17.4 78 0.0 LegendMM LegendMM   100.25 27   LegendNANA

Notes on Data Quality.

Legend

  • E = Estimated
  • M = Missing
  • NA = Not Available*
  • [empty] = Indicates an unobserved value
Date modified: